Tracking 35274 objects as of 10-Sep-2026
HD Live streaming from Space Station
objects crossing your sky now

NOAA 16 DEB

Track NOAA 16 DEB now!
10-day predictions


NORAD ID: 41421
Int'l Code: 2000-055LA
Launch date: September 21, 2000
Source: United States (US)
Launch site: AIR FORCE WESTERN TEST RANGE (AFWTR)

Note: This is SATELLITE DEBRIS
Your satellite tracking list
Your tracking list is empty




NASA's NSSDC Master Catalog

Two Line Element Set (TLE):
1 41421U 00055LA  26250.47027274  .00007368  00000-0  11992-2 0  9998
2 41421  98.9455 129.2646 0025294 154.9379 205.3059 14.71166599550850
Source of the keplerian elements: AFSPC